Wind_Speed
2 4 6 5 6 4 2 0 2 2 2 1 1 2 2 4 4 3 4 3 3 4 4 6 9 10 10 9 11 13 11 4 3 4 3 7 21 25 20 21 21 18 19 16 14 14 15 16 14 13 14 14 14 14 14 14 15 15 15 15 15 15 15 15 15 15 16 16 17 17 17 17 17 17 16 15 15 17 17 17 17 18 19 18 18 19 18 18 19 20 21 21 19 18 18 17 17
4 3 4 4 4 3 1 1 2 2 2 2 2 2 2 2 4 5 5 5 4 4 5 7 11 12 14 12 12 15 13 8 9 8 7 20 25 21 23 23 20 20 20 17 15 14 14 17 16 14 14 14 14 14 14 14 15 15 15 15 15 16 15 15 15 15 15 15 16 16 17 17 18 17 16 14 15 16 17 17 17 17 18 18 18 18 18 18 18 19 20 21 19 18 17 17 17
3 3 6 4 1 1 0 1 2 2 3 1 3 3 2 3 6 6 7 7 5 4 5 8 11 11 13 15 12 13 8 8 15 12 10 23 20 19 27 22 21 21 20 18 16 15 14 16 16 14 14 14 14 14 14 14 14 15 15 14 14 15 15 15 15 15 14 14 16 16 17 17 18 17 16 15 15 15 16 16 16 16 16 18 18 17 18 19 18 19 21 21 20 19 17 17 16
3 3 6 4 1 1 1 2 2 2 2 1 2 3 1 6 6 6 6 5 4 5 6 7 9 8 12 15 11 11 9 7 13 12 10 17 20 26 28 22 22 21 20 18 17 16 15 15 16 15 14 14 14 14 15 15 14 14 14 14 13 14 14 14 15 15 14 14 15 16 16 17 17 17 16 16 15 14 14 15 15 14 15 17 17 17 18 19 19 19 20 20 20 19 18 17 16
3 2 5 3 1 1 1 2 2 2 1 2 1 3 3 6 5 5 5 6 4 6 7 6 8 9 11 11 7 7 9 9 12 14 13 18 26 30 27 24 23 21 20 18 18 18 16 15 15 16 15 15 14 14 15 14 14 14 14 14 13 13 14 14 14 14 14 14 15 16 16 16 17 17 17 16 15 14 13 15 15 14 14 16 16 17 17 18 19 18 18 19 19 19 18 17 16
3 1 4 3 2 1 1 2 2 1 2 4 2 2 6 5 5 5 3 5 6 8 10 9 10 11 9 9 7 7 11 12 12 15 20 23 27 29 27 27 24 22 20 18 19 17 17 16 15 16 16 15 14 14 14 14 13 14 14 14 13 13 14 13 13 14 15 14 15 16 16 15 15 16 16 16 15 14 13 14 14 14 14 15 16 17 17 17 17 17 17 17 17 17 17 16 16
3 1 2 3 2 1 2 2 1 0 2 4 3 3 6 5 6 4 1 4 7 9 11 11 11 10 8 8 7 12 18 17 15 19 25 27 27 27 27 26 24 23 20 19 19 17 17 16 16 16 15 15 14 14 14 14 13 13 14 14 13 13 14 14 13 14 14 15 16 16 16 15 15 16 16 15 15 14 13 13 12 13 13 14 15 16 17 17 16 16 16 16 15 15 14 14 15
4 2 0 2 2 1 3 2 1 0 1 2 5 3 6 6 5 2 3 3 7 10 11 12 12 11 10 8 8 13 22 23 24 28 30 30 28 27 27 28 25 22 21 20 19 18 17 17 17 15 15 15 14 14 13 13 12 12 13 13 13 13 14 14 13 14 14 15 16 16 15 14 14 15 15 15 15 14 13 12 11 12 12 13 15 16 16 16 15 16 17 16 15 14 13 13 14
7 3 0 2 2 2 3 2 1 2 1 4 6 2 6 4 3 3 5 5 7 10 12 13 10 12 12 11 10 11 20 28 31 31 30 30 29 28 29 30 25 24 22 20 19 18 17 17 16 15 15 14 14 14 13 13 12 11 12 12 12 13 14 14 13 13 14 14 15 15 14 14 14 15 15 15 15 14 13 12 11 11 11 13 14 14 14 14 14 15 17 17 15 14 13 13 14
4 2 1 1 2 3 3 2 2 2 3 5 6 1 4 4 4 5 4 5 8 11 14 13 12 14 13 11 9 9 19 28 30 29 28 29 28 27 28 26 25 25 22 19 20 19 17 17 16 15 14 14 14 13 14 13 12 12 11 12 12 12 13 13 13 12 13 15 15 15 14 14 14 14 14 14 15 15 14 12 12 11 10 12 12 12 13 13 14 15 16 16 15 14 13 12 13
2 2 1 1 2 3 2 2 2 1 4 4 7 7 2 5 4 5 3 4 7 13 15 12 12 14 13 10 6 12 23 26 28 30 29 28 27 26 25 23 23 23 20 20 20 19 18 17 16 16 15 14 13 13 13 13 12 12 11 12 12 12 13 13 14 12 13 15 14 14 14 14 13 14 14 13 14 14 12 12 11 11 11 12 11 12 13 13 14 14 15 15 14 14 13 12 12
2 1 1 1 2 2 1 1 2 2 4 3 4 10 2 6 5 4 3 3 5 11 12 9 10 11 12 8 4 14 23 22 25 32 30 27 27 25 24 22 22 22 21 21 20 20 18 17 16 16 15 14 14 13 13 12 12 13 12 12 12 13 12 13 14 13 14 15 13 13 13 13 13 13 13 12 13 13 11 11 11 11 11 12 11 12 13 12 12 13 13 13 13 13 12 11 11
2 1 1 1 1 1 1 2 1 0 2 1 1 10 8 4 6 4 4 4 5 10 12 11 12 10 10 8 6 11 17 19 24 33 32 28 26 24 24 22 22 22 21 20 20 19 18 18 17 15 14 13 13 13 12 13 12 12 13 13 13 13 13 14 14 13 14 13 12 13 13 13 13 13 13 11 12 12 10 10 10 11 11 12 12 12 12 11 11 11 12 12 12 12 11 10 10
3 2 2 1 1 1 1 2 1 2 0 2 1 8 11 1 5 4 5 5 2 6 13 15 13 11 9 8 6 6 13 20 25 34 32 27 26 25 24 23 23 22 20 20 18 18 18 17 16 16 14 14 14 14 13 12 12 12 13 13 13 13 14 14 14 13 13 12 12 13 13 13 13 13 13 12 12 13 11 10 10 11 11 11 12 11 11 11 11 11 12 12 12 11 10 10 9
4 2 2 2 1 1 1 1 2 2 1 2 3 8 6 2 4 5 5 5 2 3 11 15 12 9 8 9 7 7 15 22 25 34 32 27 26 24 24 24 23 22 20 19 17 17 17 16 15 15 14 14 14 14 14 13 12 12 13 13 13 13 14 14 13 13 12 12 12 13 13 13 13 13 13 13 12 13 13 11 11 11 10 10 11 10 10 10 10 11 11 11 11 10 10 10 9
3 2 2 2 1 0 1 0 3 2 1 1 6 9 1 4 3 2 2 4 3 3 7 9 11 9 10 10 12 15 21 24 28 36 32 28 26 24 24 23 23 20 19 19 17 16 16 15 14 14 13 13 13 13 14 14 13 12 13 14 13 13 13 14 13 12 12 12 13 13 13 13 14 13 14 13 12 13 12 11 11 11 10 10 10 10 9 9 9 9 9 9 8 8 9 9 9
2 3 2 2 0 0 1 2 2 2 2 2 10 7 3 2 3 2 2 4 6 7 4 7 11 12 12 14 20 23 24 25 29 33 29 26 25 23 22 22 22 19 18 18 17 16 15 15 15 14 13 13 14 14 15 15 14 13 14 14 14 13 13 13 12 12 13 12 13 13 13 13 14 13 14 14 13 13 12 10 10 10 9 10 10 9 9 9 8 8 7 7 7 7 6 7 8
3 2 2 2 1 1 2 3 2 1 2 7 7 4 6 2 2 2 3 3 4 6 3 9 14 13 17 21 25 25 24 25 26 27 23 21 21 19 18 18 19 19 18 18 16 14 14 16 15 15 14 14 14 14 16 16 16 16 16 17 15 14 13 12 12 13 14 13 12 12 13 12 12 13 12 12 12 12 11 10 9 9 9 9 9 8 9 8 7 7 7 6 5 4 4 6 6
3 2 2 1 2 1 2 3 2 1 2 3 2 3 5 5 3 1 1 4 4 4 5 13 16 15 18 21 23 24 23 22 23 24 21 19 18 16 16 16 17 18 17 17 17 14 15 16 15 15 15 15 14 14 15 16 17 17 17 18 18 16 14 14 13 14 15 13 12 12 12 11 10 11 11 10 9 10 10 9 9 9 9 9 8 8 8 7 6 6 5 5 4 3 3 4 4
4 4 2 1 1 2 3 3 1 3 4 2 2 2 4 3 1 1 2 5 0 8 10 13 16 15 16 15 18 21 20 19 21 23 21 19 17 17 18 17 17 17 17 18 18 16 15 16 15 15 15 15 15 15 15 16 17 17 17 18 18 17 16 16 15 14 14 14 13 11 11 11 9 9 9 8 8 9 9 10 10 9 9 9 9 8 7 6 5 5 5 5 4 3 3 2 2
2 4 3 2 1 1 2 3 1 4 3 3 3 6 5 4 4 2 3 3 3 7 11 12 15 16 15 14 15 18 18 17 19 21 20 19 17 17 18 18 18 18 18 18 19 17 16 16 15 15 15 15 16 16 16 16 16 17 18 17 17 17 17 16 15 14 14 14 12 11 11 11 8 8 8 8 9 9 9 10 9 9 10 9 9 8 6 6 4 4 3 4 4 4 4 3 2
4 4 5 5 2 1 2 2 2 3 2 5 4 5 2 5 5 5 2 4 4 5 12 14 14 15 15 14 14 15 15 14 17 20 18 18 17 16 17 18 19 20 19 18 18 16 16 16 16 16 16 15 15 16 17 17 17 18 18 18 17 17 17 16 15 15 14 13 12 12 12 10 8 8 9 9 9 9 10 10 9 9 9 9 9 7 5 4 3 3 4 5 5 7 7 5 4
8 3 4 5 2 0 2 3 4 6 4 5 3 2 1 2 3 5 3 1 4 7 13 15 13 14 16 14 13 12 12 12 18 19 17 17 17 17 18 19 21 22 20 19 19 17 16 17 17 18 17 15 15 15 17 18 19 18 18 18 17 17 17 16 15 15 14 14 14 13 12 11 10 10 10 9 7 8 9 9 8 9 9 9 7 5 4 3 3 4 5 5 6 7 7 7 5
11 4 4 5 3 1 2 6 5 3 3 3 2 3 2 2 1 3 2 5 5 11 14 14 14 15 16 13 11 11 10 14 19 19 19 18 18 19 20 20 22 23 21 21 21 18 18 19 19 19 18 16 15 15 16 18 18 18 18 18 17 16 16 15 15 14 14 15 15 14 13 10 9 9 9 8 6 6 7 8 9 8 7 7 7 8 7 7 7 7 7 7 8 7 6 4 4
11 7 7 6 3 2 5 5 6 2 3 2 3 3 3 4 2 3 5 5 7 12 14 14 13 14 13 12 11 10 9 15 19 19 20 20 20 20 20 22 23 23 22 22 21 20 20 21 21 21 19 17 16 15 16 17 18 18 18 18 16 15 14 14 13 13 14 15 15 13 12 10 8 8 10 9 7 7 8 9 9 8 8 8 9 10 9 7 7 8 8 6 6 4 3 4 9
9 11 10 9 2 4 7 5 5 3 1 1 2 1 2 4 3 5 6 5 9 12 14 13 13 12 11 11 10 8 9 14 16 16 18 20 21 20 19 22 22 22 23 22 21 22 21 21 23 22 21 20 18 17 17 18 19 19 19 17 15 13 13 13 12 13 12 12 10 8 12 13 11 11 12 10 7 7 8 8 8 7 7 7 5 5 5 3 2 4 4 3 4 2 2 7 9
12 14 12 10 7 5 5 5 3 1 2 2 2 0 4 2 1 3 3 6 10 12 13 12 12 11 11 10 8 7 10 13 14 16 17 18 19 20 20 20 19 21 23 22 22 22 21 22 23 23 22 22 20 19 19 19 19 20 19 18 16 13 12 12 12 11 9 9 8 8 13 15 12 11 11 9 7 7 8 7 7 5 4 4 2 0 1 2 3 2 2 3 6 4 1 5 9
15 14 12 11 11 6 4 5 2 1 2 3 1 1 4 3 0 2 1 4 8 10 12 12 10 9 9 10 6 6 10 13 14 14 16 17 17 19 20 20 20 20 22 23 23 22 21 21 21 21 22 24 22 20 20 19 19 18 18 18 16 13 13 13 11 10 11 11 10 12 16 16 12 11 10 9 8 7 7 6 5 4 4 5 3 2 2 4 4 3 2 4 6 5 4 1 9
13 11 9 9 11 7 3 4 2 0 2 4 2 2 3 3 2 6 5 2 6 9 10 10 9 7 8 8 5 6 10 13 12 11 15 19 20 21 21 22 23 21 22 24 24 23 21 20 20 20 21 22 21 21 20 19 18 18 19 18 17 15 14 13 12 12 13 12 11 14 16 15 13 12 10 10 8 8 7 5 5 4 5 5 4 2 1 1 2 1 1 4 5 3 2 4 6
9 7 7 6 6 5 1 1 1 1 2 4 2 2 2 3 4 8 7 4 3 7 8 9 8 7 6 7 5 7 9 10 10 11 14 19 22 23 23 24 24 21 22 24 24 22 21 20 20 21 21 21 21 22 20 19 19 18 18 17 17 16 14 14 14 13 12 12 12 12 13 12 12 12 10 9 8 9 8 6 5 5 4 4 3 2 2 3 3 1 1 3 4 2 1 5 2
7 6 5 4 3 3 5 5 5 3 0 4 1 2 3 3 4 7 6 7 4 2 6 9 8 7 6 6 6 7 8 9 11 12 14 18 23 24 24 25 23 21 23 24 24 23 22 22 20 21 23 22 22 23 21 19 19 18 17 17 16 15 15 16 15 13 13 13 12 11 12 11 11 10 9 9 9 8 7 7 6 5 5 3 3 3 3 3 3 3 3 3 2 1 3 8 4
4 5 2 2 3 3 5 6 6 4 3 4 1 2 2 3 4 5 5 7 6 2 2 6 9 9 8 6 6 6 6 9 13 12 13 17 23 25 24 25 23 22 24 24 24 24 23 23 21 21 24 23 23 22 20 19 18 17 17 17 15 16 17 15 14 13 13 12 12 12 11 11 11 9 8 9 8 7 7 7 5 4 6 4 3 4 3 3 4 5 5 5 4 3 6 11 5
0 3 2 3 5 4 3 4 4 6 5 2 1 2 1 3 3 2 5 5 4 4 3 2 7 10 8 6 6 6 6 7 10 12 14 17 23 25 25 25 24 23 24 25 25 25 23 23 22 22 23 23 23 22 21 20 19 18 17 17 17 19 18 14 15 15 12 12 12 12 11 11 11 8 8 8 6 7 8 8 6 5 5 4 4 5 4 4 4 4 5 6 7 6 8 11 7
2 3 4 5 6 5 4 3 4 6 5 2 2 3 1 2 3 1 3 4 3 3 4 5 1 7 8 8 6 5 7 6 6 11 15 18 23 26 25 24 25 24 24 25 25 25 25 25 23 23 23 22 22 22 23 22 20 19 17 18 19 20 19 18 19 17 13 13 12 12 11 11 10 7 6 7 7 8 8 8 7 5 5 3 4 6 6 6 5 3 4 5 6 8 9 11 9
5 5 4 5 6 6 6 5 6 8 6 4 3 3 3 1 2 2 2 2 2 3 3 4 4 2 7 8 6 5 7 7 7 10 16 20 23 25 25 24 25 26 24 23 24 24 26 26 25 24 23 22 20 19 23 24 20 18 16 16 18 19 20 20 19 17 15 13 12 12 11 10 9 7 7 8 8 8 8 8 7 5 4 4 4 5 5 5 6 5 4 5 6 7 8 11 8
8 6 6 7 6 4 6 5 7 10 6 5 6 3 2 0 1 3 2 1 2 2 2 3 4 2 3 7 7 6 7 7 8 12 17 20 23 24 25 25 25 25 23 22 25 24 23 25 26 24 22 22 19 18 23 24 19 17 16 16 18 20 19 19 18 16 15 14 13 13 11 11 10 8 8 9 9 8 8 9 7 5 4 5 6 5 4 4 5 6 4 5 7 6 8 10 7
10 5 5 7 8 5 5 6 6 9 5 4 7 5 3 3 3 4 4 1 2 1 0 3 3 3 0 5 9 8 6 8 11 15 17 20 24 24 23 25 24 24 23 23 26 25 23 26 26 24 23 23 20 18 22 21 17 16 16 15 16 18 18 17 18 16 14 14 14 14 12 11 11 10 10 10 10 9 9 8 7 7 7 6 7 6 5 5 5 5 4 5 7 7 9 10 8
7 4 4 5 7 6 6 7 7 8 4 4 7 7 5 5 5 5 5 3 4 3 3 3 4 4 2 4 9 9 6 7 9 11 16 20 24 23 23 25 23 24 24 24 25 25 26 26 25 24 24 23 20 20 21 18 16 17 16 14 14 16 16 16 17 17 15 14 13 13 12 11 12 11 11 11 10 10 10 8 7 8 7 7 7 6 5 4 4 4 5 4 5 7 7 9 9
1 1 2 5 6 6 4 6 8 7 3 3 6 7 4 2 3 5 4 5 5 4 5 4 4 5 3 3 6 9 7 7 7 9 13 18 24 23 22 24 23 24 25 24 24 25 27 26 24 25 25 23 20 19 19 16 17 17 16 17 15 14 15 15 17 17 15 14 14 13 11 11 12 12 11 11 10 10 10 9 8 7 6 6 6 6 5 2 2 4 5 3 4 6 5 6 9
3 3 3 6 8 7 3 4 8 6 3 5 6 4 3 1 1 3 4 4 3 4 5 4 4 5 5 4 5 8 10 9 8 9 10 15 22 23 22 23 23 24 23 23 24 24 26 26 25 25 24 23 20 19 19 16 16 17 16 17 16 14 15 16 17 16 15 15 15 13 11 10 11 11 11 10 10 10 10 9 8 7 6 6 6 5 4 1 1 4 5 4 5 6 6 7 8
3 4 2 7 11 9 6 7 8 4 0 5 7 4 2 2 1 3 4 3 4 3 5 6 5 5 5 5 5 7 11 11 10 10 10 13 19 21 22 23 24 24 22 24 25 24 25 26 25 25 23 22 19 18 19 16 14 18 18 16 15 15 16 17 18 17 16 15 15 14 12 11 11 11 11 10 9 9 9 9 9 8 7 6 5 4 3 2 2 2 3 4 5 5 6 7 7
4 6 7 9 11 9 10 11 8 3 2 3 4 3 3 3 2 5 4 4 6 4 6 8 7 6 5 4 5 6 9 10 10 11 10 12 18 21 23 23 24 24 22 24 26 24 25 26 25 25 23 23 20 17 18 17 15 19 20 17 17 17 17 19 20 19 18 16 14 14 12 13 13 11 11 10 8 9 10 9 9 8 7 7 4 3 3 2 3 2 0 1 3 3 4 5 6
4 5 6 4 10 15 14 14 8 3 2 4 3 4 1 3 4 7 5 6 8 6 7 9 8 7 6 5 5 6 9 9 9 9 8 10 17 20 22 24 24 24 23 25 25 24 26 26 25 25 23 23 22 18 18 18 17 19 19 17 19 20 19 20 20 19 19 17 14 14 13 13 14 12 11 11 9 10 11 10 9 8 8 8 5 3 4 3 2 2 3 2 0 1 2 3 5
5 6 8 6 7 13 14 13 6 4 4 1 3 3 2 2 6 7 7 6 8 8 9 9 8 8 8 7 6 7 10 10 9 10 8 9 15 19 22 24 25 24 23 25 25 25 28 27 26 25 23 24 23 20 19 19 18 17 17 17 18 19 18 18 19 18 18 17 16 16 15 14 13 13 13 12 11 11 12 11 11 9 9 9 5 4 5 3 3 4 5 4 2 2 0 2 3
5 6 7 6 1 3 6 7 2 3 6 1 3 3 2 2 3 3 7 6 8 10 11 10 10 10 9 9 9 8 11 12 11 11 9 9 14 20 24 24 25 26 25 25 25 26 30 29 26 26 24 24 24 21 20 19 19 18 16 16 16 17 16 16 17 17 17 17 16 16 16 15 14 15 13 12 11 10 10 12 12 11 9 9 7 5 5 5 6 6 6 5 4 4 3 1 2
2 5 6 5 4 3 1 4 2 3 4 2 5 5 2 2 2 3 5 6 9 10 10 10 10 10 9 9 10 8 9 12 11 11 11 13 15 18 25 26 25 27 27 26 25 27 30 29 27 26 24 24 25 23 22 20 20 19 16 15 16 16 15 16 17 17 17 17 17 16 17 16 15 14 13 12 11 9 9 11 12 11 9 9 7 5 6 6 7 6 5 5 5 4 4 3 3
5 6 6 6 6 6 2 3 4 4 1 3 6 8 4 2 3 5 5 6 8 9 8 9 10 11 10 9 10 9 8 10 11 11 11 16 19 19 23 27 25 27 28 26 26 29 30 29 28 27 24 24 25 25 24 22 21 21 17 15 16 16 17 18 16 15 16 17 17 15 15 16 15 14 13 13 12 10 9 9 10 11 9 8 8 7 7 6 6 6 5 5 5 5 4 4 4
3 2 2 3 5 5 3 2 4 2 3 3 4 9 7 3 4 6 8 7 7 9 9 10 12 11 10 9 9 9 7 10 12 11 11 14 16 17 21 25 25 27 29 27 27 30 30 29 29 28 26 24 25 25 24 22 21 22 19 15 15 16 18 18 16 16 16 15 16 14 14 15 14 13 13 13 13 12 10 9 10 11 10 9 9 8 7 6 6 7 7 7 7 6 5 5 4
4 3 3 1 1 3 2 0 2 2 2 2 4 7 4 3 2 2 6 6 4 6 9 12 13 12 11 10 9 9 6 9 12 11 11 11 11 14 18 22 24 27 29 27 28 30 29 29 29 29 28 25 26 26 25 24 22 22 21 17 16 17 17 17 16 17 16 15 14 13 13 15 14 14 14 14 13 13 12 11 11 11 10 10 10 9 8 7 7 6 7 8 7 6 5 5 5
4 3 4 3 1 1 2 2 2 2 1 2 2 3 0 2 1 4 2 2 3 4 2 6 10 12 12 10 9 9 7 9 11 11 12 10 10 14 17 19 21 26 30 28 28 31 29 29 29 29 29 26 26 28 26 25 23 22 23 19 18 18 17 17 17 16 16 15 14 14 14 15 15 14 14 14 13 13 15 13 11 11 10 10 10 9 8 7 6 6 5 6 6 5 5 6 6
2 1 4 3 2 3 2 2 1 1 0 2 2 2 1 2 2 3 4 6 5 7 7 5 2 7 10 9 9 9 8 8 9 10 12 11 12 17 19 19 19 24 31 29 28 31 30 30 30 29 29 27 26 28 27 26 24 22 22 20 19 20 18 18 18 16 15 15 15 15 14 14 15 14 14 14 13 14 16 15 12 11 11 11 10 9 9 9 7 7 7 6 6 5 6 6 6
3 3 5 2 0 2 2 1 2 1 2 0 1 1 0 3 2 2 5 7 5 6 8 6 3 6 7 7 7 6 5 5 6 9 12 12 15 19 20 20 18 21 30 29 28 32 31 31 31 29 30 28 27 29 28 27 26 23 23 21 20 20 18 18 17 16 15 15 15 15 15 14 15 14 14 14 14 15 15 14 13 13 12 11 11 9 10 9 8 8 7 7 7 6 6 7 7
2 3 3 1 1 2 2 2 4 3 2 1 2 1 1 2 1 3 6 7 6 5 5 5 6 6 7 6 5 4 3 4 4 5 10 13 16 18 19 22 20 19 28 30 29 33 34 33 32 29 29 28 26 28 28 27 26 24 23 22 21 21 20 18 18 17 16 15 15 16 16 15 15 16 15 15 15 15 15 14 14 14 12 12 11 10 9 9 8 8 7 7 7 7 7 7 7
3 1 2 3 3 5 3 1 4 3 1 1 1 2 0 1 1 3 4 5 3 4 3 4 6 7 6 5 5 5 5 5 5 3 6 11 17 19 19 22 22 20 25 29 30 34 34 34 34 31 30 28 26 27 27 27 27 25 24 23 23 22 21 19 18 17 17 15 15 16 16 15 15 16 16 14 15 15 14 13 14 14 14 13 12 10 9 9 9 9 8 7 7 7 8 7 7
5 2 1 1 3 2 1 1 1 1 1 2 3 4 2 2 2 2 3 3 2 3 3 1 4 6 6 5 5 6 7 6 3 3 2 5 13 20 20 21 23 23 23 25 30 34 33 34 35 33 31 29 27 26 26 26 26 25 24 24 24 23 22 20 19 18 17 17 17 16 15 15 14 14 15 15 15 16 15 14 14 13 13 13 12 11 11 9 9 10 9 7 8 9 9 9 8
5 3 1 2 3 1 1 1 1 1 1 1 2 2 1 2 1 2 2 2 3 3 3 2 0 2 4 6 7 7 7 6 2 1 3 4 8 20 24 22 23 25 24 22 28 32 32 33 33 32 32 30 27 25 25 25 26 25 23 24 24 23 22 21 19 19 19 18 18 17 16 16 15 15 16 16 16 16 17 17 15 14 12 11 11 12 12 10 11 11 9 8 8 7 7 7 7
4 4 3 2 1 2 2 2 1 2 1 1 1 1 2 2 1 3 3 1 3 3 2 1 2 2 1 2 4 6 7 7 5 3 1 4 8 15 25 24 23 24 23 22 27 31 30 32 33 31 30 29 27 26 26 26 26 25 23 23 25 24 23 22 20 20 20 19 18 18 18 17 17 17 18 17 16 16 17 18 16 15 14 13 13 12 11 11 12 11 10 9 9 8 7 6 6
5 4 2 1 1 3 2 2 2 2 1 2 3 3 2 1 1 3 4 3 1 3 3 3 4 3 2 3 3 3 6 8 8 7 5 3 7 8 17 24 24 22 21 21 25 29 30 30 31 31 30 30 28 27 27 27 26 26 24 23 24 24 23 22 21 20 20 19 18 18 17 16 17 18 18 18 18 16 16 16 15 15 14 13 14 13 12 12 12 11 10 10 11 10 9 9 8
Wind_Direction
75 41 13 355 340 319 304 200 92 7 99 44 233 156 156 154 138 115 96 82 54 45 49 73 72 69 80 78 89 70 42 56 127 132 130 144 149 155 155 151 149 152 156 151 150 149 146 138 130 132 128 125 123 121 119 118 118 117 115 113 111 110 113 112 109 107 111 111 109 110 109 108 106 102 99 101 102 101 100 97 99 102 102 103 103 102 103 105 106 108 109 109 109 110 110 108 107
59 34 353 332 315 326 308 330 74 18 46 25 268 119 81 106 95 81 79 74 75 83 74 82 78 76 83 80 80 70 50 43 88 96 103 132 141 148 149 148 149 155 153 148 149 144 146 143 135 135 132 129 127 123 119 118 119 117 116 115 115 114 117 115 112 110 111 112 111 111 110 109 107 106 106 105 102 102 101 98 99 101 102 103 102 103 104 106 106 107 110 112 113 111 110 110 112
59 349 336 350 320 14 162 12 72 50 40 14 330 14 44 83 90 89 89 83 83 93 85 84 78 78 83 75 67 77 78 59 87 92 111 134 137 145 147 147 151 152 147 144 146 145 147 146 142 138 134 132 129 126 123 122 118 116 116 117 118 118 118 115 112 112 111 110 111 111 110 110 110 110 109 105 101 99 99 98 98 99 102 104 104 105 106 107 106 108 111 113 114 114 113 114 118
97 349 354 22 59 13 58 48 80 86 60 54 350 293 184 98 102 101 108 107 97 88 79 77 80 85 84 86 86 86 96 80 93 103 124 142 143 146 146 146 147 142 142 147 149 149 147 146 144 137 135 134 130 130 128 125 121 117 117 118 120 119 116 112 110 113 113 111 112 113 111 112 113 113 111 108 103 99 100 101 100 100 103 104 105 106 108 110 109 109 111 111 112 113 113 116 122
122 15 16 38 85 9 72 41 62 88 85 99 291 245 119 105 105 94 115 132 124 92 87 80 84 92 83 88 99 97 111 108 110 118 125 140 143 145 144 144 142 137 146 153 152 149 144 144 142 138 136 133 130 130 128 126 124 121 119 119 120 118 115 112 111 113 114 112 112 114 113 114 115 114 112 108 105 102 102 102 101 101 103 105 108 108 108 110 111 110 109 109 109 112 115 120 125
159 143 31 49 113 106 90 43 62 83 162 146 227 188 114 114 102 105 143 134 115 88 87 83 87 93 82 85 94 111 124 124 123 125 129 136 141 142 141 142 140 138 150 154 150 145 141 141 138 138 135 133 133 128 126 126 125 125 123 122 122 119 117 114 112 113 114 113 111 113 113 113 114 114 112 108 106 102 100 100 102 103 103 106 110 112 112 111 111 110 109 109 110 114 118 124 129
166 149 31 61 95 74 82 71 102 309 165 150 220 150 114 113 118 141 155 114 108 95 96 95 101 96 80 93 94 102 112 119 120 123 133 137 137 138 138 140 137 138 149 151 145 141 139 138 137 139 138 137 135 128 127 127 129 131 128 126 126 122 120 118 116 116 117 116 114 114 114 113 114 114 112 109 106 102 100 99 101 102 105 108 111 114 116 114 111 111 111 109 112 117 123 128 131
91 57 3 68 55 48 89 73 90 298 140 197 259 145 116 129 141 145 83 88 102 100 99 97 101 92 83 90 90 101 107 114 120 125 133 135 136 137 137 135 132 135 146 145 138 137 136 137 138 140 141 139 135 131 130 130 131 131 128 129 130 127 124 121 120 120 119 117 113 112 113 114 116 116 115 112 109 107 103 102 103 103 105 109 113 116 116 115 113 114 113 111 113 116 122 130 134
51 40 90 64 65 32 73 64 24 3 342 294 283 135 115 129 113 75 69 53 90 99 94 95 94 93 93 89 93 101 104 114 122 126 129 131 133 135 139 138 135 138 141 138 134 135 134 136 138 139 140 138 138 137 135 134 133 130 128 131 132 128 124 120 119 121 120 116 113 112 114 115 116 118 118 115 115 115 110 105 105 106 109 112 115 118 117 117 117 118 117 116 116 114 117 126 135
24 23 61 50 72 35 52 39 48 39 304 319 316 299 105 101 83 79 73 73 95 93 93 97 96 101 105 96 97 107 114 122 123 123 126 127 128 130 136 138 137 138 136 135 137 135 134 136 137 138 137 137 138 139 138 137 139 137 132 133 132 127 124 121 121 121 120 117 115 116 118 117 117 119 119 121 122 119 115 110 110 113 118 120 120 121 122 121 122 123 121 120 118 114 114 121 132
18 10 59 54 51 47 54 15 45 33 288 338 326 295 90 99 88 81 86 104 106 105 111 112 105 105 105 97 97 120 125 127 123 123 128 127 127 127 130 130 131 134 135 137 138 136 136 138 138 137 137 138 139 138 138 138 141 140 136 135 133 129 125 124 124 125 125 120 118 119 120 121 120 118 120 125 124 120 118 116 118 120 121 123 124 125 125 124 125 124 122 123 120 115 115 120 130
52 8 17 40 42 72 90 67 54 342 306 359 324 294 318 106 103 105 108 91 106 114 113 109 111 107 105 106 119 127 126 125 122 124 126 125 125 125 126 127 126 130 135 137 137 137 137 136 136 138 141 143 140 138 137 137 140 139 138 137 135 132 127 124 125 128 127 123 122 122 122 124 123 120 120 124 122 120 122 124 124 121 122 123 125 127 125 124 123 121 121 122 120 120 119 121 130
94 151 66 31 348 102 142 108 81 332 309 330 344 299 304 102 120 150 124 83 85 100 105 114 122 118 114 117 128 131 126 125 123 123 124 121 122 122 123 124 124 128 133 134 135 136 135 135 139 140 143 144 139 137 139 140 141 140 139 139 137 133 129 128 127 126 123 122 127 128 127 126 123 120 121 125 125 126 128 131 128 125 127 127 127 128 126 125 121 118 118 118 118 119 118 121 126
136 150 125 90 313 50 79 106 104 69 331 262 151 276 281 90 118 134 105 92 81 118 126 129 126 113 117 125 129 132 128 132 125 122 122 118 119 119 122 125 125 127 127 129 130 131 132 138 146 145 146 146 141 141 141 143 145 142 141 141 140 135 132 132 130 126 124 126 130 130 130 129 126 123 124 128 129 131 135 135 132 131 130 128 129 130 129 126 121 120 120 119 119 117 116 118 120
142 107 124 96 70 40 6 107 114 92 237 234 176 238 260 27 78 99 116 134 212 181 122 126 130 119 140 146 133 137 136 134 121 119 118 113 116 116 120 123 122 124 126 129 129 132 139 145 149 145 148 148 145 144 142 143 144 143 141 141 140 137 133 132 134 132 131 130 126 125 126 127 126 124 125 129 131 134 138 135 132 132 131 132 133 133 132 129 127 127 128 126 126 125 122 121 123
155 111 97 77 35 18 302 270 105 142 255 350 245 244 331 11 18 92 183 144 148 155 116 138 144 134 150 141 129 138 136 130 117 117 117 111 113 113 116 118 119 123 127 132 133 139 147 147 145 142 145 146 145 146 144 140 138 140 139 139 138 137 134 133 137 134 132 128 124 123 123 124 124 124 125 129 135 138 140 134 131 132 134 138 136 135 135 135 135 135 135 135 136 132 127 128 130
142 89 68 83 24 324 207 205 161 153 117 234 249 244 85 21 313 294 302 60 121 151 154 149 141 137 137 128 133 136 132 131 119 114 112 108 109 110 113 116 119 122 128 135 138 145 150 147 144 143 144 145 146 146 143 137 136 143 140 138 138 137 137 136 137 134 131 127 126 128 125 123 122 124 125 128 137 141 141 136 132 133 134 135 133 138 144 142 141 139 138 136 133 127 125 131 135
126 79 88 115 197 195 186 189 203 60 145 209 220 154 113 136 259 306 13 39 147 177 190 124 122 123 120 124 132 132 135 135 120 111 111 111 114 115 118 123 123 125 130 137 143 150 152 147 144 140 141 144 146 146 144 142 146 150 143 142 142 140 140 138 138 134 130 129 131 132 128 125 122 124 125 128 136 141 144 142 138 136 135 134 134 143 150 150 148 143 142 140 136 133 137 138 138
131 103 102 151 181 168 215 200 173 210 208 188 167 138 131 146 190 357 63 237 213 150 128 108 109 111 117 127 131 134 139 136 125 121 122 124 127 126 128 132 129 129 131 139 149 154 152 146 141 139 142 145 146 147 146 144 148 150 146 146 144 142 143 138 137 134 132 135 136 133 128 127 129 131 130 131 137 141 144 147 148 143 139 137 141 150 154 159 158 156 161 165 173 181 175 162 156
147 119 115 215 134 103 250 263 81 252 263 68 7 352 96 123 199 60 192 232 139 107 112 110 117 122 126 130 134 139 140 140 136 129 130 133 133 134 138 138 135 135 136 141 147 151 153 145 139 141 144 146 147 148 146 144 144 145 145 145 143 143 144 140 138 137 137 138 136 133 128 125 129 129 132 143 145 146 151 152 151 147 146 145 149 157 162 170 173 181 193 201 220 223 222 221 213
146 109 126 168 146 104 226 219 179 266 289 73 26 25 39 330 336 293 213 140 86 112 121 125 131 132 134 137 143 145 143 149 138 127 132 134 133 139 142 140 138 141 142 143 145 150 154 147 145 148 147 147 149 148 145 144 143 144 146 147 145 145 146 143 142 142 140 138 137 136 134 132 135 135 145 159 149 146 148 145 145 147 150 151 153 161 168 176 191 204 218 238 257 267 266 265 283
98 72 110 129 149 316 276 193 192 265 66 74 48 55 17 320 333 295 281 125 161 146 128 130 133 134 138 144 149 147 153 155 131 125 133 133 135 141 142 139 137 142 145 145 147 153 155 152 151 152 149 147 149 149 146 144 144 146 148 148 147 147 146 145 146 145 142 141 141 140 139 141 152 152 148 147 138 139 139 136 142 146 150 155 157 163 169 182 217 250 279 286 293 292 277 271 281
104 79 105 95 69 175 325 36 30 338 44 74 57 87 307 354 329 307 328 224 179 136 126 129 132 137 142 149 151 154 166 148 125 127 133 136 140 142 142 140 139 144 147 147 150 155 153 151 151 150 149 147 148 149 147 146 147 149 149 148 147 148 149 150 149 148 146 146 143 138 135 140 155 154 144 141 141 146 143 143 149 152 158 165 173 189 208 246 268 282 293 307 321 307 281 270 253
105 111 102 66 342 243 31 68 89 342 30 83 125 139 136 122 287 325 264 232 157 126 125 129 137 142 146 152 151 162 167 134 127 134 138 144 146 145 145 140 142 145 146 146 148 152 151 150 150 149 146 143 146 148 147 147 148 149 148 147 148 151 154 153 149 150 152 153 149 140 137 142 152 154 154 163 170 172 170 165 165 171 181 193 220 238 259 281 284 290 296 304 312 304 292 263 166
94 107 107 99 294 351 51 83 122 101 58 104 131 129 156 178 216 305 240 196 133 126 127 135 143 145 151 153 154 168 157 126 127 137 145 153 152 146 142 138 141 143 146 147 147 150 152 151 152 150 146 145 148 148 146 145 145 147 149 149 153 158 158 152 151 156 158 160 159 156 161 163 163 170 175 181 184 183 182 179 181 191 209 224 239 250 267 283 278 280 288 298 305 299 289 158 136
95 101 105 118 143 56 61 69 83 57 9 108 92 81 258 217 219 281 257 145 127 133 131 142 145 147 158 153 158 163 133 122 129 140 147 150 147 141 136 139 142 142 146 147 147 152 153 153 154 151 149 151 153 152 149 148 150 152 155 157 161 164 160 155 157 161 163 167 173 193 193 179 173 179 181 186 187 176 177 183 187 194 212 221 233 250 252 249 265 287 294 321 353 17 155 154 141
106 104 103 107 103 74 69 66 52 40 351 1 95 5 296 279 175 252 242 128 139 142 134 146 147 152 158 146 153 141 117 120 133 144 142 137 137 137 137 143 144 142 147 147 147 152 152 153 154 153 152 152 154 155 153 154 155 157 160 162 164 161 158 159 159 162 168 169 173 194 189 172 163 167 172 185 190 173 174 177 177 179 186 180 171 155 74 68 46 4 325 350 5 4 251 182 169
116 114 105 99 96 80 75 71 11 30 36 339 87 73 315 316 250 267 293 124 152 145 139 149 147 151 146 134 135 116 113 125 137 144 136 133 138 139 140 147 147 143 147 149 149 151 152 155 155 156 156 153 155 158 158 160 160 162 162 164 167 158 154 162 166 171 168 155 143 152 165 163 156 156 162 180 187 172 167 163 159 149 128 115 107 99 45 21 16 16 334 349 354 329 319 270 178
122 118 103 110 105 78 42 62 15 41 52 320 344 62 328 324 267 283 323 57 154 141 143 152 143 142 133 130 126 109 120 131 141 146 138 139 144 141 142 153 153 145 148 151 151 152 154 158 158 160 159 155 159 162 161 162 162 163 163 167 171 164 164 170 171 171 166 155 141 140 152 158 159 161 165 174 175 167 166 167 166 143 112 93 77 75 80 27 15 59 277 328 338 312 339 25 155
119 115 110 131 107 79 43 79 134 98 51 303 319 113 256 296 279 285 324 17 132 148 157 153 139 140 131 130 125 116 130 139 146 150 146 143 142 140 143 153 154 149 152 153 153 154 156 158 160 165 162 157 162 165 164 162 162 165 166 169 172 173 180 178 169 166 163 160 152 147 152 155 158 165 170 173 168 164 166 164 157 136 109 85 66 60 76 66 56 97 327 338 350 315 36 24 74
120 116 115 128 97 120 170 182 168 128 166 247 252 138 223 272 291 295 338 24 30 170 166 152 142 144 138 131 132 133 142 148 146 151 156 146 139 139 143 150 154 153 156 158 157 157 158 158 160 166 165 160 164 168 167 163 160 163 166 169 173 176 176 170 166 164 160 156 152 155 160 157 159 163 168 172 166 158 159 153 134 119 119 113 90 77 77 73 62 58 17 7 18 328 4 8 12
122 125 101 101 105 133 165 188 178 145 182 230 230 151 210 243 266 310 4 27 18 0 187 170 152 140 138 134 138 143 146 144 143 155 166 148 139 141 143 147 152 155 158 160 158 157 158 159 159 164 165 163 163 163 163 160 157 160 165 170 171 168 165 165 166 163 157 157 156 159 161 158 158 156 160 169 167 155 152 146 128 118 128 119 83 73 87 101 65 51 40 20 17 1 358 4 18
188 159 140 126 130 140 163 191 177 137 139 209 239 166 173 227 230 344 17 21 12 0 326 243 146 139 145 141 148 154 143 139 145 165 171 150 140 142 143 146 151 154 159 161 159 158 158 157 158 161 163 164 163 162 163 162 160 164 168 169 168 165 167 167 161 158 158 162 162 160 158 154 153 152 155 164 167 158 150 143 133 116 113 98 72 75 79 86 68 48 48 34 22 8 358 7 19
234 210 140 134 144 147 164 187 171 146 141 161 192 181 177 186 185 197 26 37 357 344 350 342 95 151 153 142 152 153 138 141 162 173 166 147 139 141 144 148 151 153 157 161 161 159 155 154 158 160 163 166 168 169 167 162 161 166 167 169 171 166 164 162 158 160 161 161 160 158 154 151 152 151 148 149 154 150 137 137 142 123 108 93 78 84 80 78 66 29 26 28 11 357 354 356 356
167 193 141 132 155 157 167 179 173 167 154 135 159 216 224 154 157 174 49 55 321 331 29 349 330 151 143 142 148 145 143 154 177 173 156 145 140 141 145 147 149 152 158 160 157 154 153 156 157 156 160 164 165 161 158 158 162 164 159 160 164 156 152 153 156 160 160 161 158 152 152 154 155 156 149 142 145 140 117 120 138 138 118 90 85 91 77 62 42 27 22 10 357 352 5 4 356
147 173 159 149 157 158 163 160 169 170 153 150 172 188 183 186 227 189 142 58 309 338 21 334 318 353 118 146 148 151 152 155 179 175 156 146 140 140 144 146 148 154 160 158 152 153 154 152 150 151 157 160 158 148 150 160 165 159 149 144 147 148 149 147 149 154 158 163 161 155 158 162 162 159 149 140 138 136 121 121 131 135 120 89 93 99 73 49 30 31 26 7 6 7 22 27 19
150 173 187 154 140 143 151 142 173 177 152 174 175 148 165 197 231 208 150 92 294 250 339 297 284 305 247 155 153 160 161 161 175 173 159 145 138 142 146 147 150 154 158 155 151 154 152 146 148 152 154 157 158 152 155 164 163 156 154 150 145 148 154 153 152 152 156 163 163 164 167 165 168 164 150 142 139 137 134 139 135 123 122 115 104 98 83 62 36 18 4 11 16 7 19 32 27
158 177 187 137 126 143 150 142 174 190 162 167 164 149 180 190 195 197 145 156 235 205 182 256 262 255 229 156 159 163 159 162 161 161 163 147 141 149 148 149 154 152 153 154 151 152 150 149 151 151 154 160 161 157 162 167 163 161 162 162 157 153 157 162 159 155 159 165 163 166 171 168 171 168 156 147 140 140 145 149 141 127 127 134 120 106 99 65 34 17 8 18 24 12 22 31 29
64 1 120 109 122 120 127 153 171 193 174 155 167 149 144 166 193 198 172 181 216 206 189 213 251 249 214 156 170 168 155 164 155 155 170 153 145 151 150 152 155 151 153 155 153 152 151 154 154 152 158 164 161 162 168 169 165 166 165 163 164 162 161 164 160 157 164 166 161 165 171 170 169 167 166 158 146 147 154 153 149 148 148 150 142 129 120 71 19 40 34 29 30 29 35 37 37
0 336 60 118 159 146 141 182 178 202 202 157 162 126 81 12 288 231 219 222 240 214 200 210 244 252 221 180 187 175 160 172 166 158 175 160 150 153 153 154 153 154 158 158 157 156 155 159 158 157 161 165 166 168 169 168 165 168 167 163 167 168 163 162 159 158 163 164 161 166 167 166 165 162 163 162 157 155 156 157 157 159 162 162 154 141 135 121 58 44 39 34 27 34 41 42 46
318 274 172 159 180 168 144 161 174 196 270 154 146 87 3 256 251 257 234 240 272 226 199 221 237 252 232 184 190 186 168 174 172 165 179 168 154 154 157 156 154 159 164 161 160 160 160 163 161 161 165 168 171 167 165 168 164 165 164 159 166 167 160 163 164 161 165 167 167 172 170 164 162 159 161 163 165 163 157 160 163 162 164 165 157 149 152 142 124 69 35 37 29 32 32 30 45
273 243 220 201 180 145 129 145 158 131 27 232 166 110 294 282 246 244 219 206 240 222 202 218 221 237 242 191 190 195 174 174 174 171 177 168 158 156 159 157 156 164 170 165 164 164 167 167 162 164 168 170 171 165 166 168 158 158 159 158 164 162 158 165 169 167 171 171 168 172 171 166 167 169 175 176 175 173 167 164 164 163 163 160 161 176 184 181 157 147 143 58 30 22 14 13 31
279 258 262 240 143 133 146 157 160 148 153 244 211 145 244 300 261 230 203 201 221 217 210 216 211 215 229 213 195 188 181 177 172 175 178 168 163 159 159 160 161 168 172 168 168 168 170 170 166 168 170 171 171 165 167 169 162 159 159 162 167 166 165 169 172 172 174 173 170 173 173 173 176 180 182 181 179 181 181 177 169 167 169 162 166 198 188 191 184 180 190 171 35 9 24 5 17
269 281 312 329 116 138 161 162 163 157 121 264 238 144 126 272 257 218 185 199 219 217 216 216 211 207 214 222 211 187 182 178 171 180 184 176 172 163 160 163 165 171 174 172 173 170 170 172 172 173 172 171 174 171 169 172 169 164 163 167 169 169 171 175 177 176 176 177 175 177 180 181 182 182 182 182 182 187 190 187 177 171 172 166 174 206 191 193 195 184 183 177 212 240 337 352 0
251 282 305 315 63 140 155 134 119 121 100 10 241 149 116 252 270 181 162 194 223 221 217 212 210 206 205 215 221 201 180 177 176 179 183 184 180 168 163 166 168 172 177 177 175 171 169 173 175 176 174 173 177 176 174 176 172 169 173 172 171 175 177 178 179 177 176 177 174 177 183 184 186 188 187 186 185 190 190 185 182 179 175 171 181 203 194 198 198 190 196 198 210 222 214 243 306
301 330 328 344 356 317 142 121 104 88 85 244 205 164 153 268 268 142 154 204 225 221 214 208 208 207 202 205 220 214 180 177 176 173 178 181 185 176 166 168 170 172 178 180 176 171 169 172 176 179 176 174 178 178 177 179 175 176 182 178 177 181 178 174 175 175 175 175 174 179 187 188 186 188 192 191 189 192 188 184 186 187 181 177 186 203 201 202 196 190 201 211 214 221 216 226 266
4 3 1 5 344 312 296 135 109 77 350 255 198 177 182 257 231 183 181 208 216 210 207 204 200 203 202 200 215 217 186 177 173 167 174 178 187 188 169 169 175 172 176 180 173 168 169 171 176 180 180 177 178 179 179 180 178 181 186 183 183 180 171 170 171 172 175 176 176 180 187 189 187 190 195 194 195 199 194 189 189 187 185 188 192 197 202 204 199 200 212 217 223 239 244 240 251
338 343 26 13 336 321 331 45 74 101 240 261 181 163 170 232 233 208 214 214 200 194 196 195 193 198 200 195 211 220 193 174 171 166 173 178 189 193 174 172 177 171 174 180 170 165 169 172 175 179 181 182 181 180 181 181 181 185 186 183 182 175 169 173 173 172 175 176 178 180 182 186 191 194 197 196 198 202 202 197 192 190 193 196 196 197 202 207 207 210 215 212 217 236 247 246 249
222 197 146 153 309 317 309 24 126 167 230 247 153 136 159 226 214 226 226 218 194 187 193 189 186 189 194 194 204 217 203 175 171 167 175 182 186 186 177 178 179 171 174 179 168 165 170 173 176 179 181 184 185 184 182 183 184 187 186 181 180 179 178 180 177 175 179 179 181 184 183 189 194 195 198 202 201 201 203 201 197 199 202 199 200 206 209 208 209 211 210 212 223 239 247 248 252
232 180 140 156 178 303 278 266 177 136 313 262 152 110 324 243 348 4 40 98 67 64 121 177 184 187 186 189 198 212 215 184 172 168 171 180 180 179 184 188 182 172 174 175 166 165 170 174 178 180 182 185 187 187 186 185 187 189 187 184 182 184 186 187 184 183 187 188 189 193 195 196 198 200 203 206 206 208 208 207 206 207 210 207 203 209 212 206 212 220 212 215 235 252 258 260 260
293 98 110 124 136 148 186 289 341 75 260 287 32 67 199 169 248 307 69 87 78 73 74 83 187 206 182 183 197 210 223 196 177 170 168 176 176 177 188 196 188 172 173 174 166 166 170 175 181 182 183 186 187 188 189 187 189 190 190 189 187 189 192 191 190 190 193 196 196 200 205 203 204 208 209 209 212 215 210 209 212 211 214 215 209 212 216 209 216 231 227 226 243 255 264 272 272
333 21 67 78 177 151 163 251 318 43 133 235 7 351 242 131 194 297 71 70 55 77 96 108 194 217 177 183 196 203 243 226 189 172 169 175 177 177 185 194 194 176 173 175 168 167 171 175 181 185 186 188 188 189 191 191 191 191 192 193 191 193 197 193 192 192 197 202 201 203 207 207 207 209 209 210 213 213 209 209 214 215 214 215 215 222 224 217 225 242 237 231 242 250 259 276 280
326 12 42 328 316 67 81 317 336 19 85 192 191 164 320 92 48 357 60 62 35 55 107 152 191 191 170 184 195 194 258 264 244 194 174 172 176 182 185 189 197 183 172 177 173 170 173 176 181 186 188 190 191 192 193 194 194 193 194 195 195 197 199 197 196 195 199 205 206 208 211 211 210 210 210 212 213 212 211 210 210 212 215 217 221 228 225 216 226 247 245 234 244 257 261 275 282
99 25 302 302 14 55 72 41 350 11 74 275 307 101 12 312 297 328 51 67 54 56 76 150 167 167 169 181 197 213 230 247 274 264 193 176 171 180 186 188 199 193 176 177 176 173 175 178 181 185 188 191 193 194 195 196 196 195 195 196 197 198 200 200 201 200 201 206 210 213 217 215 210 211 212 210 208 207 207 207 205 208 216 220 222 225 223 216 223 240 245 239 247 259 263 270 278
96 135 231 65 62 29 4 93 22 4 70 303 347 65 60 328 308 337 21 44 84 89 64 93 153 168 177 177 189 213 225 235 272 337 289 209 173 173 181 185 192 196 186 177 175 175 175 178 181 184 189 193 194 194 196 197 198 197 198 199 199 200 200 202 204 206 207 208 211 214 215 214 213 214 211 204 203 205 204 202 202 206 215 218 215 219 224 220 222 234 242 242 249 256 260 262 264
85 73 38 95 122 164 346 50 126 64 21 284 338 52 67 268 320 355 325 336 39 73 76 26 353 190 186 181 184 195 209 221 229 52 354 293 199 174 176 184 186 190 193 182 173 175 176 177 181 184 187 191 195 197 197 198 199 199 199 201 201 201 203 204 205 208 210 209 211 214 213 213 216 217 213 205 202 206 208 205 206 210 213 215 214 215 220 221 222 231 236 236 246 256 259 262 265
99 68 49 61 80 67 29 16 70 53 343 276 298 308 259 238 355 343 322 356 42 73 105 329 278 258 273 227 191 184 195 210 222 207 174 302 253 188 174 182 187 185 191 185 173 175 177 178 181 183 185 189 193 197 198 199 199 200 201 201 202 204 205 206 207 211 213 211 211 215 214 214 216 217 216 209 202 204 209 207 209 214 214 217 218 210 213 223 226 228 230 233 241 251 255 257 265
107 105 111 164 134 83 66 351 3 58 43 294 298 284 274 306 351 323 330 355 84 163 179 217 226 221 247 262 262 229 199 204 213 215 202 236 270 226 177 177 183 185 189 185 175 173 175 178 181 182 184 188 193 197 198 198 198 199 203 202 201 204 206 208 211 215 215 212 214 217 217 216 216 216 215 209 204 205 208 207 209 212 212 217 218 211 212 220 224 225 228 234 240 249 254 252 253
Height
775 777 776 776 775 775 779 778 794 799 799 813 809 809 800 780 781 783 785 781 779 773 763 764 763 765 773 782 787 786 788 791 795 805 816 805 798 805 805 807 808 809 810 811 812 812 813 815 815 816 817 817 818 819 819 820 820 820 820 820 820 820 820 820 820 820 820 819 820 820 820 820 820 819 820 821 822 823 824 826 828 829 830 830 831 832 833 833 834 835 835 835 834 833 832 832 833
775 776 776 777 775 778 783 780 800 808 806 819 805 797 794 781 783 787 786 782 780 771 762 764 765 768 772 776 777 782 793 790 784 790 798 797 802 806 806 808 808 809 811 811 812 812 814 814 815 816 817 818 818 819 819 820 820 820 820 820 820 820 820 821 821 821 821 820 821 821 821 821 821 822 822 823 823 824 825 827 829 830 831 832 832 833 834 835 835 836 836 836 836 835 835 834 835
775 776 775 777 776 778 783 785 804 815 817 825 810 797 793 789 789 786 782 777 772 765 764 766 769 774 775 782 783 789 801 793 784 788 795 799 802 805 807 808 808 810 810 812 813 813 814 814 815 816 817 817 818 818 819 820 820 820 820 820 820 820 821 821 821 822 821 821 822 822 822 823 823 824 825 825 825 825 826 828 830 831 832 833 833 834 835 836 837 837 838 838 837 837 836 836 837
775 775 775 775 779 782 787 796 806 815 821 827 822 805 791 790 788 783 777 772 767 765 768 769 775 775 776 790 788 791 800 794 790 790 796 801 801 804 807 808 810 811 811 812 812 813 814 815 815 816 817 817 818 818 818 819 820 820 821 821 821 821 822 822 822 823 822 823 823 824 824 824 825 826 826 826 827 827 828 829 831 832 833 834 834 835 836 837 838 839 839 839 838 838 838 838 838
775 776 775 775 784 789 792 801 805 813 819 823 826 805 787 787 784 781 775 770 767 767 770 772 780 776 775 785 785 794 799 794 793 791 796 801 802 805 807 809 810 810 812 812 812 813 814 815 816 816 817 817 818 818 818 819 819 820 821 821 822 822 823 823 823 823 824 824 824 825 825 826 826 827 827 828 828 828 829 830 831 833 834 835 836 837 837 838 838 839 839 839 839 839 839 839 839
775 776 775 774 783 787 796 808 809 813 810 811 817 798 785 785 781 780 774 771 767 767 770 773 781 780 782 782 781 789 791 792 793 792 796 801 804 806 807 809 810 811 812 812 813 813 814 816 816 816 816 817 818 818 819 819 820 820 821 821 822 823 823 824 825 825 825 825 826 826 827 827 828 828 829 829 829 829 830 831 832 834 835 836 837 838 838 839 839 840 840 839 839 839 839 839 839
774 777 778 781 786 788 803 814 812 812 803 801 803 790 785 782 779 778 776 776 773 771 771 775 776 782 791 786 785 786 783 788 790 793 797 800 804 806 808 809 810 812 812 813 813 813 815 815 815 816 816 817 818 818 819 819 820 820 821 822 822 823 824 825 826 826 826 827 827 828 828 828 829 830 830 830 830 831 831 832 833 834 835 836 838 839 839 840 840 840 840 840 840 840 840 840 840
774 779 782 789 796 797 807 812 808 806 800 798 793 784 783 779 777 779 780 780 779 778 776 777 774 786 796 787 793 790 784 789 790 795 799 801 805 806 808 809 810 811 812 813 813 814 815 816 816 816 816 817 817 818 819 819 820 820 821 822 822 823 824 826 827 827 827 828 829 829 829 829 830 830 831 831 832 832 833 834 835 835 836 837 838 840 840 841 841 841 840 840 841 840 840 841 841
774 780 785 793 802 804 808 812 810 805 800 798 791 781 778 776 776 779 781 780 779 780 780 779 777 790 798 792 797 791 786 792 793 797 799 802 805 806 808 808 810 810 812 812 813 814 814 816 816 816 816 817 818 818 819 820 820 820 822 822 823 824 825 826 827 827 828 829 830 830 830 831 831 832 832 832 833 833 834 835 835 837 837 838 839 840 841 841 842 841 841 841 841 841 841 841 841
778 783 789 797 803 809 814 814 812 811 807 800 794 784 777 776 777 779 782 782 779 781 782 778 780 791 797 798 799 792 791 793 794 798 800 803 804 806 808 808 809 810 812 812 813 814 814 816 815 817 817 817 818 818 819 819 820 820 821 822 823 824 825 826 827 828 828 830 830 831 832 832 833 833 833 833 834 834 835 836 836 838 838 839 840 841 841 842 842 842 842 842 842 842 842 842 842
786 787 789 801 808 814 819 817 813 811 806 799 795 786 776 775 779 781 781 782 779 782 782 780 788 792 794 800 799 793 791 793 794 798 801 803 805 806 808 809 810 810 811 812 813 814 814 816 816 817 817 818 818 818 819 819 820 820 821 823 823 824 826 826 827 828 829 830 831 832 833 833 834 833 834 834 834 835 836 837 838 839 839 840 840 841 842 842 843 842 842 842 843 843 842 843 843
792 794 793 807 813 815 816 816 815 811 806 803 802 791 777 774 781 784 784 785 781 783 783 782 789 789 798 805 798 792 791 794 795 797 801 803 805 807 808 810 811 811 811 812 813 813 814 815 816 817 817 818 818 819 819 819 820 820 822 823 824 825 826 826 827 828 829 831 832 833 834 834 835 834 835 835 836 837 837 838 839 840 840 840 841 841 842 842 843 843 843 843 843 843 843 843 843
791 796 799 810 810 811 813 814 815 814 812 807 805 798 783 778 783 783 783 785 782 787 785 780 783 785 799 804 795 793 793 794 795 798 801 802 805 807 808 810 811 812 812 813 813 813 815 815 816 816 817 817 817 819 819 819 820 821 822 823 824 825 826 827 827 828 829 831 832 833 835 835 835 836 836 836 837 838 839 840 840 840 841 841 842 842 842 843 843 843 843 843 843 844 844 844 844
786 791 798 809 808 809 811 813 815 815 815 806 803 803 790 780 780 778 781 786 785 784 780 773 777 788 799 801 800 797 793 795 796 798 800 802 805 806 808 810 811 812 813 813 813 814 815 815 815 816 816 817 817 818 819 819 820 821 822 823 825 825 826 827 827 829 830 831 833 834 835 836 836 837 837 838 839 840 841 841 841 841 842 842 842 843 843 843 843 843 843 843 844 844 844 845 845
781 787 795 807 810 811 811 812 813 815 814 803 801 800 789 778 775 777 779 786 785 773 771 773 774 790 799 800 804 796 792 794 795 798 800 803 805 806 809 809 812 813 814 814 814 814 814 815 815 816 816 816 817 817 818 819 820 821 822 824 825 826 826 828 829 830 831 832 833 834 835 836 837 838 839 839 840 841 842 842 842 842 842 843 843 843 843 844 844 843 843 844 844 844 845 845 846
777 785 797 808 812 813 812 809 810 815 811 799 796 792 788 781 774 779 775 775 781 771 772 779 775 784 792 793 795 790 790 794 795 798 800 803 805 807 809 810 813 813 814 815 814 814 814 815 815 816 816 817 817 817 818 819 821 822 823 825 826 827 827 828 829 830 832 833 834 835 836 837 838 839 840 841 842 843 843 843 843 843 844 844 844 843 844 844 844 844 844 844 844 845 845 845 846
775 786 802 811 812 812 810 808 809 811 806 802 799 789 789 788 777 774 768 767 778 776 774 776 773 777 783 786 787 787 791 794 796 798 799 803 805 807 810 811 813 814 815 815 814 814 814 815 815 816 816 817 817 817 818 819 821 822 823 825 826 828 828 829 830 831 832 833 835 836 837 838 839 840 841 842 843 844 844 844 844 844 844 844 844 844 844 844 844 844 844 845 845 845 845 846 846
779 794 806 811 812 808 803 803 801 800 801 801 795 785 787 791 784 775 772 776 777 779 777 774 774 776 779 783 785 788 791 793 796 798 800 803 805 808 811 812 813 814 816 816 815 814 814 815 816 816 816 816 817 817 818 819 821 822 823 825 826 828 829 830 830 831 833 834 835 836 837 838 839 841 842 843 844 845 845 845 845 845 845 845 845 844 844 844 845 845 845 846 846 846 846 846 846
782 796 805 807 805 800 794 794 793 794 796 791 785 782 785 788 784 778 782 786 781 785 784 778 783 783 782 784 786 789 791 793 795 798 801 802 805 807 810 813 813 814 815 816 815 814 814 816 817 816 816 817 817 818 818 820 821 822 824 825 826 828 829 830 831 832 833 834 835 837 838 839 840 842 843 844 845 845 846 846 846 845 845 845 845 845 845 845 845 845 846 846 846 846 846 846 846
777 788 802 802 795 794 790 789 792 792 790 787 787 784 783 784 780 780 786 789 785 789 788 786 791 790 787 786 786 789 791 793 795 798 801 802 804 806 809 812 813 814 815 816 815 815 815 816 817 817 817 818 818 818 819 820 821 823 824 825 827 828 830 831 832 833 834 835 836 837 839 839 841 842 844 845 845 846 846 846 846 846 846 846 845 845 845 845 846 846 846 846 846 846 846 846 846
774 782 796 795 790 795 790 788 792 789 786 788 789 787 788 786 780 782 786 792 793 788 785 786 790 789 788 788 786 789 791 792 795 797 800 802 804 806 809 811 813 814 815 816 816 816 816 816 817 817 817 818 818 819 820 821 822 824 825 826 827 828 830 831 833 834 835 836 837 838 839 840 842 843 844 846 846 846 847 847 847 847 846 846 846 846 846 846 846 846 846 846 846 846 845 846 846
776 786 789 788 789 795 789 785 789 786 784 788 790 792 793 787 784 785 786 794 794 784 780 781 783 785 786 787 787 788 790 791 794 797 799 802 804 806 809 811 813 814 816 817 817 817 817 817 817 817 817 818 820 820 821 822 823 824 825 826 828 829 831 832 834 835 836 837 838 839 840 841 842 843 845 846 847 847 847 847 847 847 847 847 847 847 847 846 846 846 845 845 845 845 845 845 846
782 792 786 787 789 791 789 787 791 788 787 792 793 793 792 792 790 786 785 787 782 775 774 777 780 782 783 785 786 788 789 791 794 796 799 801 803 806 809 811 813 814 816 817 817 818 817 818 818 817 818 819 820 822 822 823 824 825 826 828 829 830 832 833 834 835 837 838 839 840 841 842 843 844 845 846 847 848 848 848 848 848 848 848 848 848 848 847 846 846 845 845 845 845 844 845 846
780 794 790 791 789 786 788 789 791 791 791 792 790 792 793 795 792 787 787 781 773 771 772 775 779 780 782 785 786 788 788 789 793 796 799 800 803 805 808 810 813 814 816 817 818 818 819 819 819 819 819 820 821 822 823 825 826 827 828 829 830 831 832 833 835 836 837 838 840 841 841 843 844 845 846 847 848 848 848 848 848 848 848 848 848 848 848 847 847 846 846 846 845 845 844 845 846
779 791 792 793 790 786 789 789 790 791 792 790 789 793 795 792 790 790 787 777 772 771 772 775 778 780 783 785 786 787 787 789 792 796 799 800 802 805 807 810 812 814 816 817 819 819 820 820 820 821 820 820 821 822 823 825 826 828 829 830 831 832 833 834 835 836 838 839 840 841 842 844 845 846 847 847 848 848 848 848 848 849 848 849 849 849 849 848 847 847 846 846 846 845 844 846 847
781 784 789 793 793 790 791 793 794 794 791 790 792 796 795 789 790 793 783 775 774 772 774 777 779 783 784 785 786 785 787 789 792 795 798 799 802 804 807 809 811 813 815 817 819 820 820 821 822 822 822 822 822 823 824 825 827 828 829 830 831 832 833 834 836 837 838 840 842 843 844 845 846 847 847 847 848 848 848 849 849 849 849 849 849 849 849 848 848 847 846 846 846 845 845 847 847
776 781 787 791 794 791 793 797 796 794 792 792 795 799 796 788 793 797 782 773 774 774 778 779 781 785 784 785 785 785 787 789 792 795 797 799 801 803 806 809 811 813 815 816 818 819 821 822 822 823 824 824 824 825 826 827 828 829 830 831 832 832 833 835 836 837 840 841 842 843 844 845 846 847 847 848 848 848 849 849 849 849 849 849 849 849 849 848 848 847 846 846 846 845 846 847 848
772 779 787 792 795 795 795 798 797 794 795 794 794 799 796 791 795 795 781 774 775 778 781 781 783 785 784 785 786 786 788 790 793 794 797 799 801 803 806 808 810 812 814 816 817 819 821 822 823 824 825 825 826 827 827 828 829 830 831 832 832 833 834 835 837 839 840 842 842 842 844 845 846 847 847 848 848 849 849 849 849 849 849 849 849 849 849 848 848 848 847 847 846 846 846 846 848
770 775 790 797 796 802 801 798 800 797 799 795 794 805 805 799 797 789 780 776 776 779 783 783 785 785 785 786 787 788 789 791 794 795 797 799 801 803 805 808 809 812 814 816 817 819 821 822 824 824 825 826 827 828 828 829 830 830 832 832 833 834 834 836 838 839 840 841 842 842 844 845 846 847 847 848 848 849 849 850 850 849 849 849 849 849 849 849 848 848 848 847 847 846 846 846 848
773 776 789 799 802 812 808 800 800 799 801 795 799 818 817 804 796 787 781 779 779 783 785 784 786 786 788 788 789 791 790 792 794 795 797 798 801 802 805 808 809 812 814 816 818 819 821 822 824 825 826 827 827 829 829 830 831 831 832 833 834 834 836 837 838 839 840 841 842 843 844 845 846 847 847 848 848 849 849 850 849 849 850 850 849 849 849 848 848 848 848 848 847 847 846 847 848
776 783 788 796 809 818 807 799 801 803 803 795 802 821 819 805 796 788 783 782 784 787 786 785 787 788 789 789 791 793 791 792 794 795 797 798 800 802 805 808 809 812 813 815 818 819 821 822 823 825 825 827 828 829 829 830 832 832 833 834 834 836 837 838 838 839 840 841 842 843 844 845 846 847 847 848 848 849 849 849 849 850 850 850 849 849 849 848 848 848 848 848 847 847 847 847 848
778 792 800 799 808 815 804 797 797 803 803 795 804 819 816 806 797 789 786 786 788 790 789 786 786 789 790 791 792 794 792 792 794 796 797 798 800 802 805 807 809 812 813 815 817 818 821 822 823 825 826 827 828 829 830 831 832 833 834 835 836 837 838 838 838 840 841 842 843 843 844 845 846 847 847 848 849 849 849 849 849 850 850 850 849 849 849 849 849 849 848 848 848 848 848 848 848
782 789 805 804 807 814 808 799 792 796 801 799 805 814 814 805 796 791 789 790 791 793 793 788 787 789 790 792 793 794 794 794 795 796 797 798 800 802 804 807 809 811 813 815 817 818 820 821 823 824 826 827 827 829 830 831 833 833 835 835 837 837 838 838 839 840 841 842 843 843 844 845 846 847 847 848 848 849 849 849 849 850 850 850 849 849 849 849 849 849 849 849 849 849 849 849 849
791 786 795 799 802 809 811 806 794 792 799 802 804 808 809 802 796 794 791 792 794 796 796 792 790 790 790 792 793 794 795 796 796 795 796 797 799 802 804 806 808 811 813 815 816 818 819 821 823 824 826 827 828 829 830 832 833 834 835 836 837 837 838 839 839 840 841 842 843 844 844 845 846 847 847 848 848 848 848 849 850 850 850 850 850 850 850 850 850 850 850 850 850 850 850 850 849
790 787 791 798 798 801 808 806 796 791 798 803 807 809 807 801 796 795 793 792 796 797 796 794 793 791 790 791 793 794 795 796 795 793 795 796 798 801 803 806 808 810 813 814 816 817 819 821 822 824 826 826 828 829 830 832 833 834 835 836 836 837 838 839 840 841 841 842 843 844 845 845 846 847 847 847 847 848 848 849 850 850 850 850 850 850 850 850 851 851 851 851 851 851 851 850 850
776 775 781 794 798 799 799 796 790 789 798 804 807 810 807 803 800 797 795 793 796 798 795 795 794 791 791 792 793 794 795 795 793 793 794 796 798 801 803 806 808 810 812 813 815 817 819 820 821 823 825 826 828 829 830 832 833 834 834 835 836 837 838 839 840 841 842 843 843 844 845 845 846 847 847 847 847 848 848 849 850 850 850 850 850 851 851 851 851 852 852 852 851 851 851 851 850
764 769 774 782 792 798 793 791 788 784 796 804 802 806 806 803 801 796 794 795 796 798 798 797 796 793 793 793 793 794 794 793 792 793 793 795 798 800 803 805 807 810 812 813 814 817 818 819 821 823 824 826 828 828 830 831 832 833 834 835 836 837 838 839 840 841 842 842 843 844 844 845 846 846 847 847 847 848 848 849 850 850 851 851 851 851 851 851 852 852 852 852 851 851 851 851 851
759 766 772 780 789 794 789 788 787 782 793 801 797 803 805 800 799 795 793 796 796 796 798 799 796 794 793 793 793 792 791 790 791 792 793 794 797 800 803 805 807 808 810 813 814 816 818 819 821 822 824 826 827 829 830 831 832 833 833 834 835 837 838 839 840 841 842 843 843 844 844 845 845 846 847 847 848 848 849 850 850 850 851 851 851 851 852 852 852 853 853 852 851 851 851 851 851
760 763 771 786 790 791 792 787 785 784 792 800 797 801 805 799 797 795 793 794 793 792 793 795 795 794 793 793 793 792 791 791 791 792 792 794 796 799 802 804 806 808 809 812 814 815 817 819 821 822 824 826 827 829 830 831 832 833 834 834 835 837 838 839 840 841 842 843 843 844 844 845 846 846 847 847 848 848 849 849 850 850 851 851 852 852 852 853 853 854 853 853 852 852 852 852 852
762 764 775 791 788 790 800 795 789 787 788 795 797 802 807 804 799 797 795 794 790 789 790 790 791 792 791 791 791 791 791 792 792 792 792 793 795 797 801 803 806 808 809 811 813 815 816 818 820 822 824 825 827 828 830 831 832 833 834 835 836 837 838 839 840 841 842 843 843 844 844 845 846 846 847 847 848 848 849 849 850 850 851 851 852 852 852 853 853 853 853 853 853 853 852 852 852
764 762 772 785 781 781 790 792 791 790 788 788 795 810 812 805 805 802 795 794 793 790 790 791 790 789 788 788 789 789 789 789 791 792 791 792 793 796 799 802 804 807 809 810 812 814 816 817 819 821 823 825 826 828 829 830 831 832 833 835 836 837 838 839 840 841 842 842 843 843 844 845 845 846 847 847 848 848 849 849 850 850 851 851 851 852 852 853 853 853 853 853 853 853 853 853 853
770 761 759 765 771 777 781 787 793 802 805 790 792 818 821 806 806 804 796 797 797 792 792 793 791 789 787 788 788 787 787 786 787 789 789 790 792 795 798 800 803 806 808 809 811 813 815 817 818 821 823 824 826 827 828 830 831 832 833 834 835 835 837 838 839 840 841 842 842 843 844 845 845 846 846 847 848 848 849 850 850 850 850 851 851 852 852 852 853 853 853 854 854 854 854 853 853
777 761 749 751 762 773 779 785 793 806 810 791 784 807 821 814 807 800 797 799 798 794 793 792 790 789 788 788 787 787 787 786 786 786 787 789 791 793 796 798 801 805 807 809 811 812 814 816 818 820 822 823 825 826 827 829 830 831 833 833 834 835 836 837 838 839 840 841 842 843 844 844 845 846 846 847 847 848 849 849 850 850 851 851 851 852 852 852 853 853 853 854 854 854 854 854 853
774 753 746 751 758 769 775 779 786 790 792 791 785 790 812 820 805 793 795 800 800 796 794 791 788 788 787 786 785 784 785 785 785 786 787 787 789 791 793 797 800 803 806 808 810 811 813 815 817 819 821 822 824 826 827 828 830 831 832 833 834 835 835 836 838 839 839 840 842 843 843 844 845 845 846 846 847 848 848 849 849 850 850 850 851 851 852 852 853 853 853 854 854 854 854 854 854
762 745 745 748 751 760 764 770 779 779 786 802 795 787 809 818 798 789 795 802 804 798 793 791 787 785 785 784 783 781 781 782 782 784 785 786 787 789 792 795 798 802 804 807 808 810 811 814 817 818 820 822 823 825 826 827 829 830 832 833 834 835 835 836 837 838 839 840 841 842 843 843 844 845 846 846 847 847 848 848 849 849 850 850 851 851 851 852 853 853 853 853 854 853 854 854 853
750 742 746 746 748 754 757 765 773 778 792 805 797 791 808 817 804 798 803 805 802 794 788 787 784 783 782 782 780 779 779 779 780 781 783 785 786 788 790 793 796 800 802 805 807 808 810 813 815 817 819 821 822 824 826 827 828 830 831 832 833 834 835 835 837 837 838 839 840 841 842 843 844 844 845 846 846 846 847 848 848 849 850 850 850 851 851 852 852 853 853 853 853 853 853 853 853
744 746 753 756 758 757 761 765 769 788 805 800 790 788 800 814 810 800 799 794 787 785 785 784 781 781 780 780 778 777 777 778 778 779 781 783 785 786 788 791 794 797 800 803 805 806 809 811 814 816 818 820 821 823 825 826 828 829 830 831 832 833 834 835 836 837 838 839 839 840 841 842 843 843 844 845 845 846 846 847 848 849 849 850 850 850 851 851 852 852 852 853 853 853 853 853 853
746 755 763 773 775 769 773 777 779 804 816 797 784 783 794 812 806 790 785 777 773 778 781 780 780 780 778 777 777 774 775 776 776 778 780 782 784 785 786 789 791 795 798 800 803 805 808 810 812 815 817 819 820 822 824 825 826 827 828 830 831 832 833 834 835 836 837 838 839 840 840 841 842 843 844 844 844 845 846 847 847 848 849 849 850 850 851 851 851 852 852 852 853 853 853 853 853
753 761 770 786 794 794 800 801 799 812 813 794 784 786 796 802 790 778 776 771 768 770 771 772 775 776 776 776 775 773 772 774 775 776 779 780 782 783 784 786 789 791 794 797 800 803 806 809 811 813 815 817 819 820 822 824 825 826 827 829 830 831 832 833 834 835 836 837 838 839 840 840 841 842 843 843 844 845 845 846 847 847 848 849 849 850 850 851 851 851 852 852 852 852 852 852 852
760 765 775 793 805 816 821 811 804 811 810 793 783 789 800 796 782 775 772 769 768 766 765 768 769 770 772 772 773 772 770 772 773 773 776 778 780 781 782 784 786 788 791 794 797 800 804 807 809 811 813 815 817 819 820 822 824 825 826 827 829 830 831 832 833 834 836 837 837 838 839 840 840 841 842 843 843 844 845 845 846 847 848 848 849 849 850 851 851 851 851 852 852 852 852 852 852
760 758 766 785 797 811 821 814 811 815 813 801 792 797 803 799 787 774 768 768 766 765 764 766 770 770 769 770 771 772 770 770 771 771 773 776 777 779 781 783 784 786 788 791 795 798 801 805 807 809 812 813 815 817 819 820 822 824 825 826 827 829 830 831 832 834 835 836 837 838 838 839 840 841 841 842 843 843 844 845 846 846 847 847 848 849 849 850 850 851 851 851 851 852 851 851 852
763 752 764 783 783 789 801 803 801 802 807 808 804 802 794 785 780 769 767 770 767 768 767 766 771 771 769 772 772 772 772 770 770 771 771 773 775 778 780 781 783 784 786 789 792 795 798 802 806 808 810 812 813 815 817 819 820 822 824 825 826 828 829 830 831 833 834 835 836 837 838 838 839 840 841 842 842 843 843 844 845 845 846 847 847 848 848 849 849 850 850 850 850 851 851 851 851
765 763 777 778 765 772 793 801 792 792 808 810 800 802 793 784 783 774 770 774 771 772 772 770 772 771 771 774 772 772 773 770 771 771 770 771 773 776 778 780 781 782 784 786 789 792 795 798 803 806 809 811 812 814 816 818 819 821 822 824 825 826 828 829 830 831 833 834 835 836 837 837 838 839 840 840 841 842 843 843 844 845 845 846 846 847 847 848 848 849 849 849 849 850 850 850 850
766 777 777 766 762 771 789 808 808 808 820 810 793 802 806 802 800 784 775 780 778 774 773 772 772 772 773 774 772 772 771 770 771 771 770 769 770 774 777 778 780 781 782 785 787 790 793 796 800 804 807 809 811 813 815 816 818 819 821 822 824 825 826 828 829 830 831 832 834 834 835 836 837 838 839 839 840 841 842 842 843 844 845 845 846 846 847 847 848 848 848 848 849 849 849 849 849
756 767 761 766 788 795 794 808 818 821 828 817 799 802 809 809 804 791 785 786 781 777 775 774 774 773 774 774 772 772 771 770 771 772 772 770 768 771 774 777 779 780 782 783 785 788 791 794 797 800 804 807 810 812 813 815 817 818 820 821 822 824 825 827 828 829 830 831 832 833 834 835 836 836 837 838 839 840 841 841 842 843 844 844 845 845 846 846 846 847 847 847 847 848 848 848 848
752 759 759 766 785 794 794 798 805 816 827 824 813 810 812 807 797 792 790 785 780 779 778 776 776 773 772 771 771 771 770 771 771 771 772 772 770 768 771 776 778 779 781 782 784 787 789 792 796 798 802 805 808 811 812 814 815 817 818 820 821 823 824 826 827 828 829 830 831 832 833 834 835 835 836 837 838 839 839 840 841 842 842 843 844 844 845 845 845 846 846 846 846 847 847 847 847
766 772 776 776 777 782 789 795 803 815 825 826 823 821 815 799 789 789 787 782 781 780 778 778 775 772 770 769 768 768 768 768 769 769 770 773 773 769 768 773 776 778 781 782 783 786 788 791 794 796 799 803 806 808 810 812 814 815 817 818 820 822 823 825 826 827 828 828 830 831 831 833 833 834 834 835 836 837 838 839 839 840 841 842 842 843 843 844 844 844 845 845 845 845 846 846 846
767 774 778 780 781 787 801 812 816 818 824 825 823 824 814 794 785 785 782 780 779 777 777 776 774 773 771 769 767 767 766 765 765 766 768 771 772 771 769 770 774 777 779 781 783 785 787 790 792 794 797 800 803 806 808 810 812 814 816 817 818 820 822 824 825 826 826 827 828 829 830 831 831 832 833 833 834 835 836 837 838 838 839 840 840 841 842 842 842 843 843 844 844 844 844 844 844